Location: Coed Ely
(51.5661°N, 3.4150°W)
Time: 19:02:15
(UTC+00:00)

MOS 1 Rocket - Pass Details

Date: 28 January 2021
Orbit: 614 x 830 km, 97.4° (Epoch: 27 February)

Event Time Altitude Azimuth Distance (km) Brightness Sun altitude
Rises 18:37:35 0° 13° (NNE) 2,904 6.3 -15.7°
Reaches altitude 10° 18:39:46 10° 14° (NNE) 1,988 5.4 -16.0°
Maximum altitude 18:44:05 84° 105° (ESE) 627 3.0 -16.7°
Drops below altitude 10° 18:48:24 10° 193° (SSW) 1,998 5.9 -17.3°
Sets 18:50:37 0° 194° (SSW) 2,920 6.8 -17.7°
